User: anonymous   Login
Location: Gro�sch�nbrunn
(49.5760°N, 11.8868°E)
Time: 04:37:08
(UTC+00:00)
Language:

Cosmos 2279 Rocket - Orbit

View from above orbital plane
View from above orbital plane
View from above satellite
View from above satellite

Ground track
Ground track

The orbit data is extracted from the following two-line orbital elements,

1 23093U 94024B   20337.49023444  .00000050  00000-0  34918-4 0  9995
2 23093  82.9475 254.0118 0011488  63.2066 297.0265 13.77835263805289
Epoch (UTC): 02 December 2020 11:45:56
Eccentricity: 0.0011488
inclination: 82.9475°
perigee height: 963 km
apogee height: 980 km
right ascension of ascending node: 254.0118°
argument of perigee: 63.2066°
revolutions per day: 13.77835263
mean anomaly at epoch: 297.0265°
orbit number at epoch: 80528

The dashed part of the orbit path shows where the satellite is in the earth's shadow,  

DLR